Skip Page Navigation
NASA JPL Caltech
NASA Logo - Jet Propulsion Laboratory + View the NASA Portal
+ Near-Earth Object (NEO) Program
Search JPL
JPL Home Earth Solar System Stars & Galaxies Technology
JPL Solar System Dynamics
BODIES ORBITS EPHEMERIDES TOOLS PHYSICAL DATA DISCOVERY FAQ SITE MAP
JPL Small-Body Database Browser
Search: [ help ]  
86067 (1999 RM28)
Classification: Amor [NEO]          SPK-ID: 2086067
Ephemeris | Orbit Diagram | Orbital Elements | Physical Parameters | Discovery Circumstances | Close-Approach Data ]

[ show orbit diagram ]
Orbital Elements at Epoch 2457000.5 (2014-Dec-09.0) TDB
Reference: JPL 97 (heliocentric ecliptic J2000)
 Element Value Uncertainty (1-sigma)   Units 
e .3237483039466703 8.4265e-08  
a 1.817165519188528 1.3109e-08 AU
q 1.228861264360871 1.4637e-07 AU
i 30.54301602471868 1.0947e-05 deg
node 136.102637435992 7.8456e-06 deg
peri 301.8551396216743 2.0278e-05 deg
M 24.34227050945159 2.1104e-05 deg
tp 2456940.000924017990
(2014-Oct-09.50092402)
5.1912e-05 JED
period 894.726206623448
2.45
9.6817e-06
2.651e-08
d
yr
n .4023577238880504 4.3538e-09 deg/d
Q 2.405469774016184 1.7353e-08 AU
  Orbit Determination Parameters
   # obs. used (total)      470  
   data-arc span      9359 days (25.62 yr)  
   first obs. used      1989-07-07  
   last obs. used      2015-02-20  
   planetary ephem.      DE431  
   SB-pert. ephem.      SB431-BIG16  
   condition code      0  
   fit RMS      .53897  
   data source      ORB  
   producer      Otto Matic  
   solution date      2015-Mar-03 05:14:10  

Additional Information
 Earth MOID = .363953 AU 
 T_jup = 3.827 
[ show covariance matrix ]

Ephemeris | Orbit Diagram | Orbital Elements | Physical Parameters | Discovery Circumstances | Close-Approach Data ]

Physical Parameter Table
Parameter Symbol Value Units Sigma Reference Notes
absolute magnitude H 16.3 mag n/a MPO214397  
rotation period rot_per 9.196 h n/a LCDB (Rev. 2015-Feb); Warner et al., 2009 Published Reference List:
[Warner, B.D. (2015) http://www.minorplanetobserver.com/PDO/PDOLig htcurves.htm]

86067 (1999 RM28)          Discovered 1999-Sep-03 by McNaught, R. H. at Siding Spring (413)
Reference: 20040830/Numbers.arcLast Updated: 2004-09-06

[ show close-approach data ]
Ephemeris | Orbit Diagram | Orbital Elements | Physical Parameters | Discovery Circumstances | Close-Approach Data ]
ABOUT SSD CREDITS/AWARDS PRIVACY/COPYRIGHT GLOSSARY LINKS
FirstGov 2015-Mar-04 11:15 UT
(server date/time)  
NASA Home Page
Site Manager:   Ryan S. Park
Webmaster  Alan B. Chamberlin